Terminal Aerodrome Forecast
Issued by NWS

Home | Current Version | Previous Version | Text Only | Print | Product List | Glossary On
Versions: 1 2 3 4 5 6 7 8 9 10 11 12 13 14 15
000
FTUS45 KABQ 032300
TAFGUP
TAF
KGUP 032336Z 0400/0424 23016G24KT P6SM VCSH BKN070
     FM040400 23006KT P6SM SCT025 BKN060
     FM041200 32008KT P6SM FEW015 SCT070
     FM041900 31015G22KT P6SM FEW030 SCT070=

USA.gov is the U.S. government's official web portal to all federal, state and local government web resources and services.